Satellite: XATCOBEO
Catalog number: 38082
Epoch time:      12271.82395964
Element set:     579
Inclination:      069.4856 deg
RA of node:       079.0447 deg
Eccentricity:    0.0697883
Arg of perigee:   117.2218 deg
Mean anomaly:     250.2007 deg
Mean motion:   14.24927290 rev/day
Decay rate:     8.8585e-04 rev/day^2
Epoch rev:            3216
Checksum:              342

/EX
SB KEPS @ AMSAT  $ORB12271.W
Orbital Elements  12271.WEATHER

HR AMSAT ORBITAL ELEMENTS FOR WEATHER SATELLITES
FROM WA5QGD FORT WORTH,TX September 27, 2012
Send SUBSCRIBE KEPS/UNSUBSCRIBE KEPS to majordomo@amsat.org only
BID: ORB12271.W
TO ALL RADIO AMATEURS BT

Satellite: NOAA-10
Catalog number: 16969
Epoch time:      12270.71938513
Element set:    0080
Inclination:      098.5751 deg
RA of node:       297.9346 deg
Eccentricity:    0.0011597
Arg of perigee:   300.4847 deg
Mean anomaly:     059.5177 deg
Mean motion:   14.27578098 rev/day
Decay rate:       -1.7e-07 rev/day^2
Epoch rev:           35435
Checksum:              338

Satellite: NOAA-11
Catalog number: 19531
Epoch time:      12270.75817345
Element set:    0073
Inclination:      098.7281 deg
RA of node:       353.7610 deg
Eccentricity:    0.0010651
Arg of perigee:   297.7286 deg
Mean anomaly:     062.2797 deg
Mean motion:   14.14981532 rev/day
Decay rate:      -1.14e-06 rev/day^2
Epoch rev:           23887
Checksum:              313

Satellite: NOAA-12
Catalog number: 21263
Epoch time:      12270.96328852
Element set:    0565
Inclination:      098.7244 deg
RA of node:       292.1281 deg
Eccentricity:    0.0012995
Arg of perigee:   267.1247 deg
Mean anomaly:     092.8445 deg
Mean motion:   14.25519127 rev/day
Decay rate:        2.6e-07 rev/day^2
Epoch rev:           11105
Checksum:              298

Satellite: MET-3/5
Catalog number: 21655
Epoch time:      12270.49021303
Element set:    0001
Inclination:      082.5529 deg
RA of node:       080.6154 deg
Eccentricity:    0.0014330
Arg of perigee:   072.1173 deg
Mean anomaly:     288.1511 deg
Mean motion:   13.17041117 rev/day
Decay rate:        8.5e-07 rev/day^2
Epoch rev:           01498
Checksum:              247

Satellite: MET-2/21
Catalog number: 22782
Epoch time:      12270.68146769
Element set:     537
Inclination:      082.5488 deg
RA of node:       311.9896 deg
Eccentricity:    0.0021210
Arg of perigee:   225.7391 deg
Mean anomaly:     134.2042 deg
Mean motion:   13.83687901 rev/day
Decay rate:       -5.1e-07 rev/day^2
Epoch rev:           96320
Checksum:              307

Satellite: OKEAN-4
Catalog number: 23317
Epoch time:      12270.85476100
Element set:    0033
Inclination:      082.5385 deg
RA of node:       296.1472 deg
Eccentricity:    0.0022420
Arg of perigee:   020.7775 deg
Mean anomaly:     339.4347 deg
Mean motion:   14.83960965 rev/day
Decay rate:      1.107e-05 rev/day^2
Epoch rev:           96988
Checksum:              311

Satellite: NOAA-14
Catalog number: 23455
Epoch time:      12270.88039328
Element set:    0049
Inclination:      098.8239 deg
RA of node:       353.0776 deg
Eccentricity:    0.0010211
Arg of perigee:   029.8943 deg
Mean anomaly:     330.2810 deg
Mean motion:   14.13871655 rev/day
Decay rate:        1.4e-07 rev/day^2
Epoch rev:           91516
Checksum:              296

Satellite: NOAA-15
Catalog number: 25338
Epoch time:      12270.58063395
Element set:    0419
Inclination:      098.7008 deg
RA of node:       256.5857 deg
Eccentricity:    0.0010629
Arg of perigee:   169.1917 deg
Mean anomaly:     190.9494 deg
Mean motion:   14.25121789 rev/day
Decay rate:       1.90e-06 rev/day^2
Epoch rev:           74729
Checksum:              339

Satellite: RESURS
Catalog number: 25394
Epoch time:      12270.98386295
Element set:    0197
Inclination:      098.3299 deg
RA of node:       253.9130 deg
Eccentricity:    0.0001262
Arg of perigee:   350.5144 deg
Mean anomaly:     009.6012 deg
Mean motion:   14.24297418 rev/day
Decay rate:        5.0e-07 rev/day^2
Epoch rev:           73889
Checksum:              308

Satellite: FENGYUN1
Catalog number: 25730
Epoch time:      12271.91835852
Element set:     704
Inclination:      098.8521 deg
RA of node:       229.1587 deg
Eccentricity:    0.0020664
Arg of perigee:   065.1012 deg
Mean anomaly:     295.2302 deg
Mean motion:   14.09754668 rev/day
Decay rate:       6.14e-06 rev/day^2
Epoch rev:           68908
Checksum:              307

Satellite: OKEAN-0
Catalog number: 25860
Epoch time:      12270.93241284
Element set:    0761
Inclination:      097.9494 deg
RA of node:       231.5686 deg
Eccentricity:    0.0000734
Arg of perigee:   035.4758 deg
Mean anomaly:     324.6500 deg
Mean motion:   14.74309213 rev/day
Decay rate:       5.75e-06 rev/day^2
Epoch rev:           70956
Checksum:              307

Satellite: NOAA-16
Catalog number: 26536
Epoch time:      12270.73810919
Element set:    0908
Inclination:      099.0844 deg
RA of node:       314.3784 deg
Eccentricity:    0.0010842
Arg of perigee:   154.9028 deg
Mean anomaly:     205.2656 deg
Mean motion:   14.12784969 rev/day
Decay rate:       2.55e-06 rev/day^2
Epoch rev:           61937
Checksum:              329

